Terminal Aerodrome Forecast
Issued by NWS Sterling, VA

Current Version | Previous Version | Graphics & Text | Print | Product List | Glossary On
Versions: 1 2 3 4 5 6 7 8 9 10 11 12 13 14 15 16 17 18 19 20 21 22 23 24 25 26 27 28 29 30 31 32
000
FTUS41 KLWX 281435 AAC
TAFIAD
TAF AMD
KIAD 281435Z 2815/2918 21004KT 5SM -SHRA BKN015 OVC025
      TEMPO 2815/2817 1SM -SHRA BKN006
     FM281800 26005KT P6SM -SHRA VCTS SCT030CB OVC035
     FM290000 32005KT P6SM SCT045 OVC080
     FM290400 33008KT P6SM BKN010 OVC025
     FM290900 35009KT P6SM SCT025 BKN040=

USA.gov is the U.S. government's official web portal to all federal, state and local government web resources and services.